Location: La Brionne
(46.1728°N, 1.7849°E)
Time: 21:37:36
(UTC+00:00)

Cosmos 1844 Rocket - Pass Details

Date: 16 June 2021
Orbit: 823 x 846 km, 71.0° (Epoch: 01 August)

Event Time Altitude Azimuth Distance (km) Brightness Sun altitude
Rises 22:18:28 0° 327° (NNW) 3,411 7.5 -17.2°
Reaches altitude 10° 22:21:04 10° 319° (NW) 2,474 6.3 -17.3°
Maximum altitude 22:26:15 38° 254° (WSW) 1,276 3.6 -17.7°
Enters shadow 22:29:22 21° 200° (SSW) 1,803 4.0 -17.9°
